CPA427 RKSI-VHHH

Flight info

Callsign CPA427
Flight time N/A
Altitude 38000
Route BOPTA3H BOPTA Z51 BEDES Y711 MUGUS Y742 SALMI Q11 DRAKE A1 ELATO V522 ABBEY
Aircraft A346/H-SDE2E3FGHIJ3J4J5M1RWXY/LB1D1

Departure

Time 2026-05-05 23:01
Airport Incheon International Airport (RKSI)

Arrival

Time N/A
Airport Hong Kong International Airport (VHHH)
Time Latitude Longitude Altitude Speed Heading
2026-05-05 22:36 37.46599 126.43498 39 ft 0 kts 324°
2026-05-05 22:50 37.46598 126.43499 40 ft 1 kts 324°
2026-05-05 22:51 37.46579 126.43517 40 ft 4 kts 324°
2026-05-05 22:51 37.46559 126.43535 39 ft 4 kts 318°
2026-05-05 22:51 37.46547 126.43556 40 ft 4 kts 287°
2026-05-05 22:51 37.46546 126.43578 40 ft 4 kts 249°
2026-05-05 22:52 37.46559 126.43605 40 ft 4 kts 233°
2026-05-05 22:52 37.46572 126.43627 40 ft 1 kts 234°
2026-05-05 22:52 37.46574 126.43631 40 ft 0 kts 234°
2026-05-05 22:54 37.46572 126.43628 40 ft 1 kts 234°
2026-05-05 22:54 37.46568 126.43619 40 ft 7 kts 234°
2026-05-05 22:54 37.46516 126.43530 39 ft 16 kts 231°
2026-05-05 22:54 37.46426 126.43501 40 ft 14 kts 157°
2026-05-05 22:55 37.46331 126.43567 40 ft 17 kts 146°
2026-05-05 22:55 37.46246 126.43644 40 ft 12 kts 158°
2026-05-05 22:55 37.46170 126.43618 40 ft 12 kts 221°
2026-05-05 22:55 37.46108 126.43531 40 ft 15 kts 233°
2026-05-05 22:56 37.46046 126.43419 40 ft 15 kts 235°
2026-05-05 22:56 37.45975 126.43293 41 ft 19 kts 233°
2026-05-05 22:56 37.45953 126.43175 41 ft 14 kts 306°
2026-05-05 22:56 37.46030 126.43083 40 ft 17 kts 326°
2026-05-05 22:57 37.46141 126.42986 40 ft 21 kts 325°
2026-05-05 22:57 37.46273 126.42870 40 ft 25 kts 323°
2026-05-05 22:57 37.46421 126.42741 41 ft 27 kts 326°
2026-05-05 22:57 37.46583 126.42596 41 ft 30 kts 324°
2026-05-05 22:58 37.46755 126.42439 41 ft 31 kts 324°
2026-05-05 22:58 37.46939 126.42276 40 ft 33 kts 325°
2026-05-05 22:58 37.47130 126.42107 40 ft 34 kts 324°
2026-05-05 22:58 37.47312 126.41945 41 ft 30 kts 325°
2026-05-05 22:59 37.47394 126.41862 41 ft 14 kts 299°
2026-05-05 22:59 37.47367 126.41747 41 ft 16 kts 236°
2026-05-05 22:59 37.47303 126.41630 40 ft 11 kts 233°
2026-05-05 22:59 37.47239 126.41602 42 ft 11 kts 153°
2026-05-05 23:00 37.47156 126.41668 41 ft 36 kts 146°
2026-05-05 23:00 37.46757 126.42025 40 ft 103 kts 144°
2026-05-05 23:00 37.46011 126.42687 38 ft 158 kts 144°
2026-05-05 23:01 37.45003 126.43578 255 ft 187 kts 144°
2026-05-05 23:01 37.43943 126.44547 928 ft 190 kts 144°
2026-05-05 23:01 37.42815 126.45442 1631 ft 192 kts 150°
2026-05-05 23:01 37.41630 126.46222 2316 ft 194 kts 152°
2026-05-05 23:02 37.40444 126.47043 2866 ft 201 kts 150°
2026-05-05 23:02 37.39194 126.47953 3329 ft 214 kts 155°
2026-05-05 23:02 37.37741 126.48715 3675 ft 233 kts 165°
2026-05-05 23:02 37.36136 126.49290 4086 ft 252 kts 168°
2026-05-05 23:03 37.34395 126.49863 4705 ft 263 kts 168°
2026-05-05 23:03 37.32583 126.50464 5545 ft 267 kts 168°
2026-05-05 23:03 37.30795 126.51064 6357 ft 272 kts 168°
2026-05-05 23:03 37.28953 126.51715 7170 ft 278 kts 165°
2026-05-05 23:04 37.27128 126.52608 7990 ft 285 kts 158°
2026-05-05 23:04 37.25339 126.53753 8816 ft 291 kts 155°
2026-05-05 23:04 37.23544 126.54974 9659 ft 296 kts 154°
2026-05-05 23:04 37.21727 126.56215 10512 ft 300 kts 154°
2026-05-05 23:05 37.19855 126.57489 11116 ft 314 kts 153°
2026-05-05 23:05 37.17878 126.58828 11561 ft 332 kts 153°
2026-05-05 23:05 37.15791 126.60239 11978 ft 350 kts 153°
2026-05-05 23:05 37.13531 126.61558 12368 ft 367 kts 162°
2026-05-05 23:06 37.10999 126.62341 12739 ft 383 kts 173°
2026-05-05 23:06 37.08325 126.62524 13084 ft 387 kts 181°
2026-05-05 23:06 37.05631 126.62490 13107 ft 387 kts 182°
2026-05-05 23:06 37.02940 126.62428 13108 ft 387 kts 182°
2026-05-05 23:07 37.00248 126.62374 13106 ft 387 kts 182°
2026-05-05 23:07 36.97555 126.62339 13111 ft 389 kts 181°
2026-05-05 23:07 36.94809 126.62362 13496 ft 399 kts 180°
2026-05-05 23:07 36.92040 126.62402 14464 ft 396 kts 180°
2026-05-05 23:08 36.89282 126.62435 15356 ft 398 kts 181°
2026-05-05 23:08 36.86499 126.62333 16066 ft 403 kts 184°
2026-05-05 23:08 36.83681 126.62176 16758 ft 408 kts 184°
2026-05-05 23:08 36.80838 126.62016 17451 ft 412 kts 183°
2026-05-05 23:09 36.77952 126.61852 18130 ft 416 kts 183°
2026-05-05 23:09 36.75039 126.61862 18784 ft 421 kts 178°
2026-05-05 23:09 36.72110 126.62248 19423 ft 426 kts 172°
2026-05-05 23:09 36.69191 126.63021 20035 ft 432 kts 166°
2026-05-05 23:10 36.66272 126.63984 20628 ft 436 kts 165°
2026-05-05 23:10 36.63327 126.64988 21218 ft 441 kts 165°
2026-05-05 23:10 36.60392 126.65991 21780 ft 445 kts 165°
2026-05-05 23:10 36.57386 126.67011 22344 ft 450 kts 165°
2026-05-05 23:11 36.54355 126.68033 22884 ft 454 kts 165°
2026-05-05 23:11 36.51289 126.69063 23417 ft 458 kts 165°
2026-05-05 23:11 36.48197 126.70099 23934 ft 462 kts 165°
2026-05-05 23:11 36.45077 126.71143 24444 ft 467 kts 165°
2026-05-05 23:12 36.41927 126.72195 24935 ft 471 kts 165°
2026-05-05 23:12 36.38753 126.73255 25425 ft 475 kts 165°
2026-05-05 23:12 36.35549 126.74331 25920 ft 478 kts 165°
2026-05-05 23:12 36.32325 126.75420 26392 ft 482 kts 165°
2026-05-05 23:13 36.29084 126.76516 26878 ft 485 kts 165°
2026-05-05 23:13 36.25819 126.77616 27327 ft 488 kts 166°
2026-05-05 23:13 36.22530 126.78724 27768 ft 491 kts 166°
2026-05-05 23:13 36.19203 126.79751 28197 ft 494 kts 169°
2026-05-05 23:14 36.15804 126.80415 28650 ft 495 kts 175°
2026-05-05 23:14 36.12369 126.80678 29226 ft 493 kts 180°
2026-05-05 23:14 36.08950 126.80546 29869 ft 490 kts 185°
2026-05-05 23:14 36.05563 126.80201 30498 ft 487 kts 186°
2026-05-05 23:15 36.02196 126.79826 31087 ft 485 kts 187°
2026-05-05 23:15 35.98840 126.79449 31645 ft 484 kts 187°
2026-05-05 23:15 35.95492 126.79081 32220 ft 482 kts 187°
2026-05-05 23:15 35.92166 126.78722 32872 ft 477 kts 188°
2026-05-05 23:16 35.88877 126.78366 33553 ft 472 kts 188°
2026-05-05 23:16 35.85620 126.78013 34157 ft 469 kts 188°
2026-05-05 23:16 35.82381 126.77660 34692 ft 466 kts 188°
2026-05-05 23:16 35.79155 126.77309 35168 ft 465 kts 188°
2026-05-05 23:17 35.75937 126.76960 35599 ft 464 kts 188°
2026-05-05 23:17 35.72720 126.76611 36000 ft 463 kts 189°
2026-05-05 23:17 35.69510 126.76263 36379 ft 463 kts 189°
2026-05-05 23:17 35.66302 126.75917 36704 ft 463 kts 189°
2026-05-05 23:18 35.63087 126.75571 36994 ft 464 kts 189°
2026-05-05 23:18 35.59870 126.75225 37319 ft 463 kts 189°
2026-05-05 23:18 35.56663 126.74881 37678 ft 462 kts 189°
2026-05-05 23:18 35.53470 126.74539 38004 ft 461 kts 189°
2026-05-05 23:19 35.50268 126.74195 38121 ft 463 kts 189°
2026-05-05 23:19 35.47059 126.73848 38123 ft 463 kts 189°
2026-05-05 23:19 35.40643 126.73158 38130 ft 463 kts 189°
2026-05-05 23:20 35.34232 126.72472 38132 ft 462 kts 189°
2026-05-05 23:20 35.27827 126.71789 38143 ft 461 kts 189°
2026-05-05 23:21 35.21435 126.71110 38134 ft 460 kts 189°
2026-05-05 23:21 35.15058 126.70434 38145 ft 460 kts 190°
2026-05-05 23:22 35.08691 126.69756 38150 ft 459 kts 190°
2026-05-05 23:22 35.02377 126.69082 38139 ft 458 kts 190°
2026-05-05 23:23 34.96040 126.68409 38134 ft 457 kts 190°
2026-05-05 23:23 34.89708 126.67738 38151 ft 456 kts 190°
2026-05-05 23:24 34.83388 126.67071 38146 ft 455 kts 190°
2026-05-05 23:24 34.77085 126.66406 38133 ft 454 kts 190°
2026-05-05 23:25 34.70795 126.65744 38146 ft 454 kts 190°
2026-05-05 23:25 34.64508 126.65083 38134 ft 453 kts 190°
2026-05-05 23:26 34.58238 126.64427 38148 ft 452 kts 190°
2026-05-05 23:26 34.51965 126.63771 38134 ft 452 kts 190°
2026-05-05 23:27 34.45700 126.63115 38132 ft 452 kts 190°
2026-05-05 23:27 34.39441 126.62462 38134 ft 451 kts 190°
2026-05-05 23:28 34.33186 126.61810 38136 ft 451 kts 190°
2026-05-05 23:28 34.26941 126.61159 38140 ft 451 kts 190°
2026-05-05 23:29 34.20699 126.60506 38148 ft 450 kts 190°
2026-05-05 23:29 34.14458 126.59854 38133 ft 450 kts 190°
2026-05-05 23:30 34.09274 126.59315 38133 ft 450 kts 190°
2026-05-05 23:30 34.01980 126.58559 38143 ft 450 kts 190°
2026-05-05 23:31 33.95799 126.57923 38142 ft 448 kts 191°
2026-05-05 23:31 33.89588 126.57200 38141 ft 443 kts 193°
2026-05-05 23:32 33.83592 126.55886 38135 ft 439 kts 199°
2026-05-05 23:32 33.77739 126.53892 38139 ft 435 kts 204°
2026-05-05 23:33 33.72050 126.51445 38138 ft 434 kts 205°
2026-05-05 23:33 33.66355 126.48993 38138 ft 434 kts 205°
2026-05-05 23:34 33.60670 126.46540 38148 ft 434 kts 205°
2026-05-05 23:34 33.54983 126.44087 38134 ft 434 kts 205°
2026-05-05 23:35 33.49305 126.41639 38149 ft 433 kts 205°
2026-05-05 23:35 33.44591 126.39610 38139 ft 433 kts 205°
2026-05-05 23:36 33.38931 126.37172 38133 ft 431 kts 205°
2026-05-05 23:36 33.33290 126.34746 38139 ft 430 kts 205°
2026-05-05 23:37 33.27655 126.32328 38147 ft 430 kts 205°
2026-05-05 23:37 33.22022 126.29915 38142 ft 429 kts 205°
2026-05-05 23:38 33.16405 126.27513 38144 ft 428 kts 205°
2026-05-05 23:38 33.10801 126.25120 38136 ft 427 kts 205°
2026-05-05 23:39 33.05205 126.22735 38135 ft 427 kts 205°
2026-05-05 23:39 32.99619 126.20354 38146 ft 426 kts 205°
2026-05-05 23:40 32.94052 126.17958 38134 ft 425 kts 205°
2026-05-05 23:40 32.88506 126.15575 38144 ft 423 kts 205°
2026-05-05 23:41 32.82970 126.13203 38145 ft 422 kts 205°
2026-05-05 23:41 32.77443 126.10837 38131 ft 422 kts 205°
2026-05-05 23:42 32.71925 126.08480 38130 ft 421 kts 205°
2026-05-05 23:42 32.66416 126.06128 38132 ft 420 kts 205°
2026-05-05 23:43 32.60913 126.03784 38131 ft 420 kts 205°
2026-05-05 23:43 32.55417 126.01447 38130 ft 419 kts 205°
2026-05-05 23:44 32.49933 125.99118 38129 ft 419 kts 205°
2026-05-05 23:44 32.44414 125.96771 38129 ft 422 kts 205°
2026-05-05 23:45 32.38920 125.94444 38124 ft 422 kts 205°
2026-05-05 23:45 32.33400 125.92108 38122 ft 420 kts 205°
2026-05-05 23:46 32.27896 125.89784 38122 ft 420 kts 205°
2026-05-05 23:46 32.22400 125.87465 38123 ft 419 kts 205°
2026-05-05 23:47 32.16910 125.85153 38123 ft 418 kts 205°
2026-05-05 23:47 32.11430 125.82849 38123 ft 418 kts 205°
2026-05-05 23:48 32.05945 125.80546 38118 ft 418 kts 205°
2026-05-05 23:48 32.00460 125.78245 38113 ft 418 kts 205°
2026-05-05 23:49 31.94987 125.75941 38113 ft 417 kts 205°
2026-05-05 23:49 31.89515 125.73639 38114 ft 417 kts 205°
2026-05-05 23:50 31.84044 125.71342 38108 ft 418 kts 205°
2026-05-05 23:50 31.78562 125.69046 38102 ft 418 kts 205°
2026-05-05 23:51 31.73083 125.66754 38103 ft 418 kts 205°
2026-05-05 23:51 31.67602 125.64458 38104 ft 418 kts 205°
2026-05-05 23:52 31.62122 125.62164 38100 ft 418 kts 205°
2026-05-05 23:52 31.56640 125.59874 38095 ft 418 kts 205°
2026-05-05 23:53 31.51160 125.57583 38094 ft 418 kts 205°
2026-05-05 23:53 31.45680 125.55282 38097 ft 419 kts 205°
2026-05-05 23:54 31.40190 125.52980 38096 ft 419 kts 205°
2026-05-05 23:54 31.34703 125.50687 38083 ft 419 kts 205°
2026-05-05 23:55 31.29215 125.48397 38088 ft 419 kts 205°
2026-05-05 23:55 31.23723 125.46107 38082 ft 419 kts 205°
2026-05-05 23:56 31.18240 125.43824 38083 ft 418 kts 205°
2026-05-05 23:56 31.12769 125.41550 38085 ft 417 kts 205°
2026-05-05 23:57 31.07299 125.39278 38083 ft 417 kts 204°
2026-05-05 23:57 31.01876 125.37028 38082 ft 416 kts 204°
2026-05-05 23:58 30.96417 125.34767 38088 ft 416 kts 204°
2026-05-05 23:58 30.90965 125.32511 38082 ft 415 kts 204°
2026-05-05 23:59 30.85501 125.30252 38083 ft 416 kts 204°
2026-05-05 23:59 30.80040 125.27998 38082 ft 415 kts 204°
2026-05-06 00:00 30.74599 125.25757 38082 ft 414 kts 204°
2026-05-06 00:00 30.69166 125.23520 38083 ft 414 kts 204°
2026-05-06 00:01 30.63742 125.21288 38076 ft 413 kts 204°
2026-05-06 00:01 30.58320 125.19063 38075 ft 413 kts 204°
2026-05-06 00:02 30.52899 125.16841 38075 ft 413 kts 204°
2026-05-06 00:02 30.47479 125.14621 38075 ft 412 kts 204°
2026-05-06 00:03 30.42073 125.12402 38075 ft 412 kts 204°
2026-05-06 00:03 30.36660 125.10185 38075 ft 412 kts 204°
2026-05-06 00:04 30.31251 125.07974 38075 ft 412 kts 204°
2026-05-06 00:04 30.25875 125.05778 38075 ft 413 kts 204°
2026-05-06 00:05 30.17743 125.02465 38076 ft 413 kts 204°
2026-05-06 00:06 30.12323 125.00260 38075 ft 413 kts 204°
2026-05-06 00:06 30.06914 124.98064 38075 ft 413 kts 204°
2026-05-06 00:07 30.01492 124.95863 38075 ft 413 kts 204°
2026-05-06 00:07 29.96097 124.93602 38077 ft 410 kts 205°
2026-05-06 00:08 29.90763 124.91311 38075 ft 408 kts 205°
2026-05-06 00:08 29.85436 124.89031 38067 ft 409 kts 204°
2026-05-06 00:09 29.80040 124.86719 38057 ft 418 kts 204°
2026-05-06 00:09 29.74578 124.84396 38057 ft 419 kts 204°
2026-05-06 00:10 29.69104 124.82071 38056 ft 419 kts 204°
2026-05-06 00:10 29.63628 124.79746 38057 ft 420 kts 204°
2026-05-06 00:11 29.58144 124.77421 38057 ft 420 kts 204°
2026-05-06 00:11 29.52700 124.75114 38057 ft 420 kts 204°
2026-05-06 00:12 29.47207 124.72789 38057 ft 421 kts 204°
2026-05-06 00:12 29.41711 124.70467 38057 ft 421 kts 204°
2026-05-06 00:13 29.36213 124.68146 38057 ft 421 kts 204°
2026-05-06 00:13 29.30720 124.65829 38057 ft 421 kts 204°
2026-05-06 00:14 29.25220 124.63513 38057 ft 421 kts 204°
2026-05-06 00:14 29.19722 124.61200 38057 ft 421 kts 204°
2026-05-06 00:15 29.14221 124.58890 38057 ft 421 kts 204°
2026-05-06 00:15 29.08724 124.56584 38053 ft 421 kts 204°
2026-05-06 00:16 29.03229 124.54279 38049 ft 420 kts 204°
2026-05-06 00:16 28.97851 124.51691 38048 ft 419 kts 208°
2026-05-06 00:17 28.92723 124.48573 38048 ft 417 kts 213°
2026-05-06 00:17 28.87871 124.44952 38048 ft 416 kts 217°
2026-05-06 00:18 28.83131 124.41163 38048 ft 416 kts 216°
2026-05-06 00:18 28.78424 124.37401 38047 ft 416 kts 216°
2026-05-06 00:19 28.73680 124.33606 38048 ft 416 kts 216°
2026-05-06 00:19 28.68936 124.29811 38046 ft 417 kts 216°
2026-05-06 00:20 28.64191 124.26017 38025 ft 417 kts 216°
2026-05-06 00:20 28.59443 124.22225 38021 ft 417 kts 216°
2026-05-06 00:21 28.54694 124.18435 38020 ft 417 kts 216°
2026-05-06 00:21 28.49948 124.14653 38020 ft 417 kts 216°
2026-05-06 00:22 28.45195 124.10870 38019 ft 417 kts 216°
2026-05-06 00:22 28.40436 124.07089 38014 ft 417 kts 216°
2026-05-06 00:23 28.35659 124.03327 38010 ft 418 kts 214°
2026-05-06 00:23 28.30662 123.99951 38011 ft 419 kts 210°
2026-05-06 00:24 28.25384 123.97091 38010 ft 422 kts 205°
2026-05-06 00:24 28.20885 123.94926 38011 ft 423 kts 206°
2026-05-06 00:25 28.15471 123.92318 38012 ft 422 kts 205°
2026-05-06 00:25 28.10065 123.89727 38011 ft 422 kts 205°
2026-05-06 00:26 28.04659 123.87142 38011 ft 422 kts 205°